Home > Weather > Lafayette > Past weeks

Flag for U.S.A. Weather for the Past 2 Weeks in Lafayette, Indiana, U.S.A.

Now
25 °F

More clouds than sun.


Feels Like: 13 °F
Forecast: 24 / 33 °F
Wind: 15 mph from West

Location: Purdue University Airport

Current Time: Feb 8, 2016 at 5:43:16 PM

Latest Report: Feb 8, 2016 at 4:54 PM


Visibility: 10 mi

Pressure: 29.76 "Hg

Humidity: 75%

Dew point: 18 °F

Location of LafayetteLocation

Historic Weather in Lafayette — Graph

°F

Lafayette Temperature Yesterday

Maximum temperature yesterday: 50 °F (at 1:54 PM)
Minimum temperature yesterday: 32 °F (at 1:54 AM)
Average temperature yesterday: 40 °F

High & Low Weather Summary for the Past Weeks

 TemperatureHumidityPressure
High59 °F (Jan 31, 1:54 PM)100% (Feb 1, 3:01 AM)30.41 "Hg (Feb 1, 3:01 AM)
Low18 °F (Feb 6, 4:54 AM)43% (Feb 7, 1:54 PM)29.45 "Hg (Feb 2, 9:54 PM)
Average35 °F75%29.96 "Hg
* Reported Jan 24 3:54 PM — Feb 8 3:54 PM, Lafayette, Weather by CustomWeather, © 2016

Note: Actual official high and low records may vary slightly from our data, if they occured in-between our weather recording intervals... More about our weather records

Advertising

Lafayette Weather History for the Previous 24 Hours

 ConditionsComfort  
Time TempWeatherWind HumidityBarometerVisibility
3:54 PM
Mon, Feb 8
25 °FMostly cloudy.17 mph78%29.74 "Hg10 mi
2:54 PM26 °FLight snow. Mostly cloudy.15 mph81%29.72 "Hg7 mi
1:54 PM27 °FLight snow. Overcast.13 mph81%29.71 "Hg8 mi
1:02 PM28 °FIce fog.10 mph85%29.69 "Hg3 mi
12:54 PM28 °FIce fog.14 mph89%29.70 "Hg2 mi
11:54 AM30 °FOvercast.14 mph79%29.70 "Hg10 mi
10:54 AM31 °FIce fog.14 mph92%29.68 "Hg4 mi
9:54 AM32 °FIce fog.7 mph85%29.68 "Hg6 mi
8:54 AM30 °FOvercast.5 mph92%29.68 "Hg10 mi
7:54 AM29 °FScattered clouds.3 mph89%29.68 "Hg10 mi
6:54 AM29 °FPassing clouds.5 mph89%29.67 "Hg10 mi
5:54 AM32 °FPassing clouds.No wind82%29.68 "Hg10 mi
4:54 AM32 °FMostly cloudy.3 mph82%29.68 "Hg10 mi
3:54 AM31 °FMostly cloudy.No wind82%29.69 "Hg10 mi
2:54 AM32 °FClear.5 mph79%29.70 "Hg10 mi
1:54 AM34 °FPassing clouds.8 mph76%29.72 "Hg10 mi
12:54 AM36 °FOvercast.7 mph75%29.74 "Hg10 mi
11:54 PM
Sun, Feb 7
37 °FPassing clouds.8 mph76%29.76 "Hg10 mi
10:54 PM38 °FPassing clouds.9 mph76%29.78 "Hg10 mi
9:54 PM38 °FPassing clouds.7 mph76%29.79 "Hg10 mi
8:54 PM38 °FClear.6 mph76%29.81 "Hg10 mi
7:54 PM40 °FClear.8 mph73%29.82 "Hg10 mi
6:54 PM42 °FPassing clouds.12 mph68%29.82 "Hg10 mi
5:54 PM45 °FPassing clouds.14 mph60%29.81 "Hg10 mi
Weather by CustomWeather, © 2016

See weather overviewHow to use our weather pages